FW5940 Weather Reports


Display with metric or nautical units.
time (UTC)temp
F
wind
direction
speed
MPH
gust
MPH
rain 1hr
in
rain 24hr
in
rain mn
in
humidity
%
barometer
mb
20260505111516 74 69 3.0 9.0 0.00 0.00 0.00 41 1006.3
20260505110515 72 47 2.0 4.0 0.00 0.00 0.00 43 1006.4
20260505101515 72 42 4.0 8.0 0.00 0.00 0.00 43 1007.0
20260505100516 72 123 2.0 6.0 0.00 0.00 0.00 43 1007.3
20260505095515 72 97 3.0 8.0 0.00 0.00 0.00 44 1007.4
20260505094516 71 73 3.0 6.0 0.00 0.00 0.00 45 1007.5
20260505093517 72 142 2.0 5.0 0.00 0.00 0.00 45 1007.6
20260505092515 71 208 4.0 9.0 0.00 0.00 0.00 48 1007.7
20260505091516 70 329 2.0 5.0 0.00 0.00 0.00 49 1007.8
20260505090516 69 340 1.0 4.0 0.00 0.00 0.00 51 1008.0
20260505085517 70 186 1.0 4.0 0.00 0.00 0.00 54 1008.1
20260505084536 68 218 2.0 4.0 0.00 0.00 0.00 55 1008.1
20260505083516 67 205 1.0 5.0 0.00 0.00 0.00 60 1008.2
20260505082515 66 204 2.0 5.0 0.00 0.00 0.00 60 1008.3
20260505081517 65 194 0.0 2.0 0.00 0.00 0.00 64 1008.5
20260505080517 65 190 2.0 6.0 0.00 0.00 0.00 64 1008.6
20260505075537 64 209 1.0 4.0 0.00 0.00 0.00 66 1008.6
20260505074517 64 185 1.0 3.0 0.00 0.00 0.00 67 1008.7
20260505073535 62 181 1.0 3.0 0.00 0.00 0.00 69 1008.8
20260505072517 62 175 3.0 6.0 0.00 0.00 0.00 71 1008.9
20260505071516 61 177 1.0 3.0 0.00 0.00 0.00 73 1008.9
20260505070517 59 182 2.0 4.0 0.00 0.00 0.00 74 1008.9
20260505065515 59 215 1.0 3.0 0.00 0.00 0.00 75 1008.9
20260505064516 58 213 1.0 3.0 0.00 0.00 0.00 75 1008.9
20260505063521 58 219 2.0 4.0 0.00 0.00 0.00 76 1009.0
20260505062515 57 207 1.0 3.0 0.00 0.00 0.00 77 1009.1
20260505061516 56 214 1.0 2.0 0.00 0.00 0.00 78 1009.1
20260505060515 56 219 1.0 3.0 0.00 0.00 0.00 78 1009.1
20260505055515 55 219 2.0 4.0 0.00 0.00 0.00 80 1009.2
20260505054516 54 208 2.0 6.0 0.00 0.00 0.00 81 1009.2
20260505053518 53 195 2.0 6.0 0.00 0.00 0.00 82 1009.2
20260505052516 52 189 2.0 4.0 0.00 0.00 0.00 83 1009.3
20260505051516 51 179 2.0 4.0 0.00 0.00 0.00 83 1009.2
20260505050516 51 183 2.0 4.0 0.00 0.00 0.00 84 1009.2
20260505041517 48 160 1.0 2.0 0.00 0.00 0.00 85 1009.3
20260505040515 49 160 1.0 2.0 0.00 0.00 0.00 85 1009.2
20260505035516 49 159 0.0 1.0 0.00 0.00 0.00 85 1009.3
20260505034515 49 159 1.0 2.0 0.00 0.00 0.00 85 1009.3
20260505033517 49 159 1.0 2.0 0.00 0.00 0.00 85 1009.3
20260505032516 49 159 0.0 1.0 0.00 0.00 0.00 85 1009.4
20260505031517 49 159 0.0 2.0 0.00 0.00 0.00 84 1009.5
20260505030516 49 169 1.0 2.0 0.00 0.00 0.00 83 1009.6
20260505025515 50 0.0 0.0 0.00 0.00 0.00 84 1009.7
20260505024516 51 169 1.0 2.0 0.00 0.00 0.00 84 1009.7
20260505023515 50 169 1.0 2.0 0.00 0.00 0.00 84 1009.9
20260505022517 50 171 0.0 2.0 0.00 0.00 0.00 83 1010.0
20260505021516 50 0.0 0.0 0.00 0.00 0.00 83 1010.0
20260505020536 51 0.0 0.0 0.00 0.00 0.00 83 1010.1
20260505015516 51 0.0 0.0 0.00 0.00 0.00 82 1010.2
20260505014515 51 0.0 0.0 0.00 0.00 0.00 82 1010.2
20260505013517 52 0.0 0.0 0.00 0.00 0.00 82 1010.2
20260505012516 52 0.0 0.0 0.00 0.00 0.00 81 1010.2
20260505011515 52 0.0 0.0 0.00 0.00 0.00 80 1010.3
20260505010516 53 170 1.0 2.0 0.00 0.00 0.00 80 1010.4
20260505005516 54 169 0.0 1.0 0.00 0.00 0.00 79 1010.4
20260505004517 55 0.0 0.0 0.00 0.00 0.00 78 1010.3
20260505003516 55 169 1.0 2.0 0.00 0.00 0.00 77 1010.5
20260505002536 55 180 1.0 3.0 0.00 0.00 0.00 77 1010.5
20260505001516 56 184 3.0 5.0 0.00 0.00 0.00 77 1010.5
20260505000516 56 168 1.0 4.0 0.00 0.00 0.00 77 1010.7
20260504235515 56 184 2.0 6.0 0.00 0.00 0.00 77 1010.7
20260504234516 56 181 1.0 3.0 0.00 0.00 0.00 76 1010.8
20260504233517 57 181 1.0 3.0 0.00 0.00 0.00 76 1010.8
20260504232516 57 180 1.0 3.0 0.00 0.00 0.00 76 1010.9
20260504231517 57 197 1.0 4.0 0.00 0.00 0.00 75 1011.1
20260504230515 58 197 1.0 2.0 0.00 0.00 0.00 75 1011.2
20260504225517 58 215 1.0 4.0 0.00 0.00 0.00 75 1011.2
20260504224516 58 232 1.0 3.0 0.00 0.00 0.00 74 1011.2
20260504223517 59 278 1.0 1.0 0.00 0.00 0.00 73 1011.3
20260504222536 59 278 1.0 1.0 0.00 0.00 0.00 73 1011.4
20260504221519 59 278 0.0 1.0 0.00 0.00 0.00 72 1011.6
20260504220556 60 278 0.0 1.0 0.00 0.00 0.00 71 1011.7
20260504215515 61 272 2.0 7.0 0.00 0.00 0.00 70 1011.8
20260504214516 61 250 3.0 6.0 0.00 0.00 0.00 69 1012.0
20260504213516 62 260 3.0 8.0 0.00 0.00 0.00 68 1012.0
20260504212537 62 275 6.0 13.0 0.00 0.00 0.00 67 1011.9
20260504211516 62 273 9.0 18.0 0.00 0.00 0.00 66 1012.0
20260504210518 63 248 5.0 11.0 0.00 0.00 0.00 65 1012.1
20260504205516 63 253 7.0 15.0 0.00 0.00 0.00 63 1012.1
20260504204515 63 244 7.0 13.0 0.00 0.00 0.00 62 1012.0
20260504203516 62 252 5.0 11.0 0.00 0.00 0.00 63 1011.9
20260504202515 60 240 6.0 14.0 0.00 0.00 0.00 66 1011.9
20260504201517 60 286 1.0 2.0 0.00 0.00 0.00 68 1011.3
20260504200516 61 286 1.0 2.0 0.00 0.00 0.00 67 1011.3
20260504195517 62 308 1.0 3.0 0.00 0.00 0.00 65 1011.1
20260504194516 62 0.0 0.0 0.00 0.00 0.00 63 1011.0
20260504193518 63 316 0.0 1.0 0.00 0.00 0.00 62 1011.0
20260504192515 64 316 0.0 1.0 0.00 0.00 0.00 61 1011.1
20260504191515 65 0.0 0.0 0.00 0.00 0.00 59 1011.0
20260504190516 66 316 0.0 1.0 0.00 0.00 0.00 57 1010.9
20260504185536 67 316 0.0 1.0 0.00 0.00 0.00 55 1010.9
20260504184518 67 316 1.0 2.0 0.00 0.00 0.00 54 1010.9
20260504183516 68 328 1.0 3.0 0.00 0.00 0.00 54 1010.8
20260504182515 68 5 1.0 2.0 0.00 0.00 0.00 54 1010.7
20260504181538 68 5 1.0 2.0 0.00 0.00 0.00 53 1010.8
20260504180517 69 5 1.0 2.0 0.00 0.00 0.00 52 1010.7
20260504175516 70 5 1.0 3.0 0.00 0.00 0.00 50 1010.7
20260504174516 70 5 2.0 3.0 0.00 0.00 0.00 48 1010.6
20260504173516 71 356 2.0 4.0 0.00 0.00 0.00 48 1010.6
20260504172516 71 15 2.0 5.0 0.00 0.00 0.00 47 1010.6
20260504171536 71 13 3.0 7.0 0.00 0.00 0.00 47 1010.6
20260504170515 72 350 2.0 7.0 0.00 0.00 0.00 45 1010.6
20260504150516 74 356 3.0 7.0 0.00 0.00 0.00 43 1010.9
20260504140518 75 358 7.0 12.0 0.00 0.00 0.00 41 1011.0
20260504130516 76 101 3.0 7.0 0.00 0.00 0.00 38 1011.4